Time,TemperatureF,DewpointF,PressureIn,WindDirection,WindDirectionDegrees,WindSpeedMPH,WindSpeedGustMPH,Humidity,HourlyPrecipIn,Conditions,Clouds,dailyrainin,SolarRadiationWatts/m^2,SoftwareType,DateUTC
2013-12-03 00:00:00,27.0,27.0,-100.00,ENE,64,15.0,26.0,100,0.00,,,0.00,0.000000,,2013-12-03 08:00:00,
2013-12-03 00:42:00,27.0,27.0,-100.00,ENE,64,15.0,26.0,100,0.00,,,0.00,0.000000,,2013-12-03 08:42:00,
2013-12-03 00:53:00,27.0,27.0,-100.00,ENE,64,15.0,26.0,100,0.00,,,0.00,0.000000,,2013-12-03 08:53:00,
2013-12-03 01:00:00,25.0,25.0,-100.00,ENE,68,22.0,39.0,100,0.00,,,0.00,0.000000,,2013-12-03 09:00:00,
2013-12-03 01:22:00,25.0,25.0,-100.00,ENE,68,22.0,39.0,100,0.00,,,0.00,0.000000,,2013-12-03 09:22:00,
2013-12-03 01:33:00,25.0,25.0,-100.00,ENE,68,22.0,39.0,100,0.00,,,0.00,0.000000,,2013-12-03 09:33:00,
2013-12-03 01:43:00,25.0,25.0,-100.00,ENE,68,22.0,39.0,100,0.00,,,0.00,0.000000,,2013-12-03 09:43:00,
2013-12-03 01:54:00,25.0,25.0,-100.00,ENE,68,22.0,39.0,100,0.00,,,0.00,0.000000,,2013-12-03 09:54:00,
2013-12-03 02:00:00,24.0,24.0,-100.00,ENE,61,24.0,40.0,100,0.00,,,0.00,0.000000,,2013-12-03 10:00:00,
2013-12-03 02:42:00,24.0,24.0,-100.00,ENE,61,24.0,40.0,100,0.00,,,0.00,0.000000,,2013-12-03 10:42:00,
2013-12-03 02:53:00,24.0,24.0,-100.00,ENE,61,24.0,40.0,100,0.00,,,0.00,0.000000,,2013-12-03 10:53:00,
2013-12-03 03:00:00,23.0,23.0,-100.00,ENE,67,22.0,41.0,100,0.00,,,0.00,0.000000,,2013-12-03 11:00:00,
2013-12-03 03:42:00,23.0,23.0,-100.00,ENE,67,22.0,41.0,100,0.00,,,0.00,0.000000,,2013-12-03 11:42:00,
2013-12-03 03:52:00,23.0,23.0,-100.00,ENE,67,22.0,41.0,100,0.00,,,0.00,0.000000,,2013-12-03 11:52:00,
2013-12-03 04:00:00,23.0,23.0,-100.00,ENE,67,23.0,40.0,100,0.00,,,0.00,0.000000,,2013-12-03 12:00:00,
2013-12-03 04:42:00,23.0,23.0,-100.00,ENE,67,23.0,40.0,100,0.00,,,0.00,0.000000,,2013-12-03 12:42:00,
2013-12-03 04:52:00,23.0,23.0,-100.00,ENE,67,23.0,40.0,100,0.00,,,0.00,0.000000,,2013-12-03 12:52:00,
2013-12-03 05:00:00,23.0,23.0,-100.00,ENE,65,27.0,47.0,98,0.00,,,0.00,0.000000,,2013-12-03 13:00:00,
2013-12-03 05:42:00,23.0,23.0,-100.00,ENE,65,27.0,47.0,98,0.00,,,0.00,0.000000,,2013-12-03 13:42:00,
2013-12-03 05:52:00,23.0,23.0,-100.00,ENE,65,27.0,47.0,98,0.00,,,0.00,0.000000,,2013-12-03 13:52:00,
2013-12-03 06:00:00,23.0,21.0,-100.00,ENE,69,25.0,48.0,93,0.00,,,0.00,0.000000,,2013-12-03 14:00:00,
2013-12-03 06:42:00,23.0,21.0,-100.00,ENE,69,25.0,48.0,93,0.00,,,0.00,0.000000,,2013-12-03 14:42:00,
2013-12-03 06:52:00,23.0,21.0,-100.00,ENE,69,25.0,48.0,93,0.00,,,0.00,0.000000,,2013-12-03 14:52:00,
2013-12-03 07:00:00,23.0,20.0,-100.00,ENE,65,26.0,47.0,88,0.00,,,0.00,0.000000,,2013-12-03 15:00:00,
2013-12-03 07:43:00,23.0,20.0,-100.00,ENE,65,26.0,47.0,88,0.00,,,0.00,0.000000,,2013-12-03 15:43:00,
2013-12-03 07:53:00,23.0,20.0,-100.00,ENE,65,26.0,47.0,88,0.00,,,0.00,0.000000,,2013-12-03 15:53:00,
2013-12-03 08:00:00,23.0,19.0,-100.00,ENE,66,26.0,40.0,85,0.00,,,0.00,1.000000,,2013-12-03 16:00:00,
2013-12-03 08:43:00,23.0,19.0,-100.00,ENE,66,26.0,40.0,85,0.00,,,0.00,1.000000,,2013-12-03 16:43:00,
2013-12-03 08:52:00,23.0,19.0,-100.00,ENE,66,26.0,40.0,85,0.00,,,0.00,1.000000,,2013-12-03 16:52:00,
2013-12-03 09:00:00,24.0,19.0,-100.00,ENE,67,23.0,44.0,82,0.00,,,0.00,37.000000,,2013-12-03 17:00:00,
2013-12-03 09:22:00,24.0,19.0,-100.00,ENE,67,23.0,44.0,82,0.00,,,0.00,37.000000,,2013-12-03 17:22:00,
2013-12-03 09:33:00,24.0,19.0,-100.00,ENE,67,23.0,44.0,82,0.00,,,0.00,37.000000,,2013-12-03 17:33:00,
2013-12-03 09:42:00,24.0,19.0,-100.00,ENE,67,23.0,44.0,82,0.00,,,0.00,37.000000,,2013-12-03 17:42:00,
2013-12-03 09:53:00,24.0,19.0,-100.00,ENE,67,23.0,44.0,82,0.00,,,0.00,37.000000,,2013-12-03 17:53:00,
2013-12-03 10:00:00,26.0,20.0,-100.00,ENE,70,24.0,43.0,77,0.00,,,0.00,108.000000,,2013-12-03 18:00:00,
2013-12-03 10:42:00,26.0,20.0,-100.00,ENE,70,24.0,43.0,77,0.00,,,0.00,108.000000,,2013-12-03 18:42:00,
2013-12-03 10:53:00,26.0,20.0,-100.00,ENE,70,24.0,43.0,77,0.00,,,0.00,108.000000,,2013-12-03 18:53:00,
2013-12-03 11:00:00,27.0,19.0,-100.00,ENE,75,22.0,40.0,70,0.00,,,0.00,244.000000,,2013-12-03 19:00:00,
2013-12-03 11:42:00,27.0,19.0,-100.00,ENE,75,22.0,40.0,70,0.00,,,0.00,244.000000,,2013-12-03 19:42:00,
2013-12-03 11:52:00,27.0,19.0,-100.00,ENE,75,22.0,40.0,70,0.00,,,0.00,244.000000,,2013-12-03 19:52:00,
2013-12-03 12:00:00,29.0,19.0,-100.00,ENE,70,16.0,35.0,66,0.00,,,0.00,396.000000,,2013-12-03 20:00:00,
2013-12-03 12:42:00,29.0,19.0,-100.00,ENE,70,16.0,35.0,66,0.00,,,0.00,396.000000,,2013-12-03 20:42:00,
2013-12-03 12:53:00,29.0,19.0,-100.00,ENE,70,16.0,35.0,66,0.00,,,0.00,396.000000,,2013-12-03 20:53:00,
2013-12-03 13:00:00,30.0,19.0,-100.00,ENE,71,15.0,32.0,64,0.00,,,0.00,318.000000,,2013-12-03 21:00:00,
2013-12-03 13:44:00,30.0,19.0,-100.00,ENE,71,15.0,32.0,64,0.00,,,0.00,318.000000,,2013-12-03 21:44:00,
2013-12-03 13:54:00,30.0,19.0,-100.00,ENE,71,15.0,32.0,64,0.00,,,0.00,318.000000,,2013-12-03 21:54:00,
2013-12-03 14:00:00,29.0,18.0,-100.00,ENE,68,15.0,32.0,62,0.00,,,0.00,363.000000,,2013-12-03 22:00:00,
2013-12-03 14:43:00,29.0,18.0,-100.00,ENE,68,15.0,32.0,62,0.00,,,0.00,363.000000,,2013-12-03 22:43:00,
2013-12-03 14:53:00,29.0,18.0,-100.00,ENE,68,15.0,32.0,62,0.00,,,0.00,363.000000,,2013-12-03 22:53:00,
2013-12-03 15:00:00,29.0,17.0,-100.00,ENE,65,13.0,29.0,61,0.00,,,0.00,263.000000,,2013-12-03 23:00:00,
2013-12-03 15:42:00,29.0,17.0,-100.00,ENE,65,13.0,29.0,61,0.00,,,0.00,263.000000,,2013-12-03 23:42:00,
2013-12-03 15:52:00,29.0,17.0,-100.00,ENE,65,13.0,29.0,61,0.00,,,0.00,263.000000,,2013-12-03 23:52:00,
2013-12-03 16:00:00,27.0,16.0,-100.00,ENE,58,14.0,31.0,63,0.00,,,0.00,122.000000,,2013-12-04 00:00:00,
2013-12-03 16:22:00,27.0,16.0,-100.00,ENE,58,14.0,31.0,63,0.00,,,0.00,122.000000,,2013-12-04 00:22:00,
2013-12-03 16:32:00,27.0,16.0,-100.00,ENE,58,14.0,31.0,63,0.00,,,0.00,122.000000,,2013-12-04 00:32:00,
2013-12-03 16:42:00,27.0,16.0,-100.00,ENE,58,14.0,31.0,63,0.00,,,0.00,122.000000,,2013-12-04 00:42:00,
2013-12-03 16:52:00,27.0,16.0,-100.00,ENE,58,14.0,31.0,63,0.00,,,0.00,122.000000,,2013-12-04 00:52:00,
2013-12-03 17:00:00,26.0,14.0,-100.00,ENE,62,15.0,29.0,61,0.00,,,0.00,8.000000,,2013-12-04 01:00:00,
2013-12-03 17:42:00,26.0,14.0,-100.00,ENE,62,15.0,29.0,61,0.00,,,0.00,8.000000,,2013-12-04 01:42:00,
2013-12-03 17:52:00,26.0,14.0,-100.00,ENE,62,15.0,29.0,61,0.00,,,0.00,8.000000,,2013-12-04 01:52:00,
2013-12-03 18:00:00,26.0,15.0,-100.00,ENE,64,14.0,27.0,63,0.00,,,0.00,0.000000,,2013-12-04 02:00:00,
2013-12-03 18:22:00,26.0,15.0,-100.00,ENE,64,14.0,27.0,63,0.00,,,0.00,0.000000,,2013-12-04 02:22:00,
2013-12-03 18:32:00,26.0,15.0,-100.00,ENE,64,14.0,27.0,63,0.00,,,0.00,0.000000,,2013-12-04 02:32:00,
2013-12-03 18:42:00,26.0,15.0,-100.00,ENE,64,14.0,27.0,63,0.00,,,0.00,0.000000,,2013-12-04 02:42:00,
2013-12-03 18:52:00,26.0,15.0,-100.00,ENE,64,14.0,27.0,63,0.00,,,0.00,0.000000,,2013-12-04 02:52:00,
2013-12-03 19:00:00,25.0,16.0,-100.00,ENE,64,14.0,25.0,67,0.00,,,0.00,0.000000,,2013-12-04 03:00:00,
2013-12-03 19:43:00,25.0,16.0,-100.00,ENE,64,14.0,25.0,67,0.00,,,0.00,0.000000,,2013-12-04 03:43:00,
2013-12-03 19:54:00,25.0,16.0,-100.00,ENE,64,14.0,25.0,67,0.00,,,0.00,0.000000,,2013-12-04 03:54:00,
2013-12-03 20:00:00,25.0,16.0,-100.00,ENE,60,16.0,27.0,69,0.00,,,0.00,0.000000,,2013-12-04 04:00:00,
2013-12-03 20:42:00,25.0,16.0,-100.00,ENE,60,16.0,27.0,69,0.00,,,0.00,0.000000,,2013-12-04 04:42:00,
2013-12-03 20:52:00,25.0,16.0,-100.00,ENE,60,16.0,27.0,69,0.00,,,0.00,0.000000,,2013-12-04 04:52:00,
2013-12-03 21:00:00,25.0,18.0,-100.00,ENE,62,18.0,33.0,75,0.00,,,0.00,0.000000,,2013-12-04 05:00:00,
2013-12-03 21:42:00,25.0,18.0,-100.00,ENE,62,18.0,33.0,75,0.00,,,0.00,0.000000,,2013-12-04 05:42:00,
2013-12-03 21:53:00,25.0,18.0,-100.00,ENE,62,18.0,33.0,75,0.00,,,0.00,0.000000,,2013-12-04 05:53:00,
2013-12-03 22:00:00,25.0,20.0,-100.00,ENE,66,17.0,28.0,80,0.00,,,0.00,0.000000,,2013-12-04 06:00:00,
2013-12-03 22:42:00,25.0,20.0,-100.00,ENE,66,17.0,28.0,80,0.00,,,0.00,0.000000,,2013-12-04 06:42:00,
2013-12-03 22:52:00,25.0,20.0,-100.00,ENE,66,17.0,28.0,80,0.00,,,0.00,0.000000,,2013-12-04 06:52:00,
2013-12-03 23:00:00,25.0,20.0,-100.00,ENE,62,15.0,28.0,80,0.00,,,0.00,0.000000,,2013-12-04 07:00:00,
2013-12-03 23:42:00,25.0,20.0,-100.00,ENE,62,15.0,28.0,80,0.00,,,0.00,0.000000,,2013-12-04 07:42:00,
2013-12-03 23:52:00,25.0,20.0,-100.00,ENE,62,15.0,28.0,80,0.00,,,0.00,0.000000,,2013-12-04 07:52:00,